Tracking 18852 objects as of 24-Nov-2017
HD Live streaming from Space Station
objects crossing your sky now

OPTUS A1 (AUSSAT 1)

Track OPTUS A1 (AUSSAT 1) now!
OPTUS A1 (AUSSAT 1) is classified as:


NORAD ID: 15993
Int'l Code: 1985-076B
Perigee: 35,904.1 km
Apogee: 35,969.5 km
Inclination: 15.3 °
Period: 1,443.4 minutes
Semi major axis: 42307 km
RCS: 1 m2 (large)
Launch date: August 27, 1985
Source: Australia (AUS)
Launch site: AIR FORCE EASTERN TEST RANGE (AFETR)
aabbcc
Your satellite tracking list
Your tracking list is empty




NASA's NSSDC Master Catalog

Two Line Element Set (TLE):
1 15993U 85076B   17326.95786380 -.00000344  00000-0  00000+0 0  9999
2 15993  15.3235   5.5949 0007720 279.6506 244.1551  0.99763613 88373
Source of the keplerian elements: AFSPC